星链-31751 (STARLINK-31751 )

导读

STARLINK-31751是美国太空探索技术公司(SpaceX)星链互联网星座的卫星,于2024年4月23日发射入轨,属于星链项目批量部署的卫星之一。星链系统旨在为全球提供高速低延迟互联网服务,该卫星加入后进一步扩充了星链星座的在轨规模,提升星座覆盖能力与服务容量,推动全球卫星互联网网络的构建。

Basic Information
目录编号:
59574
目录名称:
STARLINK-31751
国际标识:
2024-076L
轨道中心:
EARTH
卫星名称:
星链-31751
卫星全名:
星链-31751 (STARLINK-31751 )
卫星状态:
在轨 (已飞行865 天)
发射日期:
2024-04-23 UTC
国别 :
美国 (US)
星等 :
--
Orbit Information
数据来源 国际轨道数据
星历时间: 2026-09-05T05:05:41+0800
21小时前
查看轨道信息
半长轴: 6861.164km
偏心率: 0.0001456
轨道倾角: 43.002°
近地点辐角 263.290°
升交点赤经 77.361°
平近点角 96.778°
近地点: 482.028km
远地点: 484.026km
周期: 94.266分钟
每日圈数: 15.275876
Detailed Information
固有亮度:
5
最大亮度:
1.5
卫星平台:
Starlink v2.0 mini
覆盖范围:
全球
运营商:
太空探索技术公司
运营商所在国:
美国
制造商(研发单位):
太空探索技术公司
制造商所在国:
美国
使用方式:
暂无
Satellite Introduction
星链(Starlink)计划是由太空探索技术公司(SpaceX)提出的一个巨型低轨卫星互联网星座项目,计划在2019年至2024年间在太空搭建由约1.2万颗卫星组成的“星链”网络,其中1584颗将部署在地球上空550千米处的近地轨道,并从2020年开始工作。该卫星仍在工作。
2D Orbit Map
3D Orbit Map
Orbit Altitude Analysis Chart
Orbit Inclination Analysis Chart
Orbit Comprehensive Analysis Chart
View Comprehensive Chart
Conjunction Data List
Event ID Objects TCA Miss Dist (km) Collision Risk Probability Collision Risk Index (CRI) Action
CDM_260907-213005-957406-642621
2026-09-07T
21:30:15+0000
0.243 km
中距离
5.135067E-4 高风险 0.89
CDM_260907-195605-957406-642621
2026-09-07T
19:56:06+0000
1.463 km
极远距离
4.665109E-6 低风险 0.48
CDM_260903-105905-957406-695921
2026-09-03T
10:59:10+0000
1.059 km
极远距离
4.513342E-6 低风险 0.48
CDM_260903-101205-957406-695922
2026-09-03T
10:12:06+0000
1.084 km
极远距离
4.167234E-6 低风险 0.47
CDM_260903-092505-957406-695922
2026-09-03T
09:25:01+0000
1.417 km
极远距离
1.763237E-6 低风险 0.4
CDM_260903-083705-957406-695922
2026-09-03T
08:37:56+0000
1.678 km
极远距离
1.093002E-6 低风险 0.36
CDM_260907-182105-957406-642621
2026-09-07T
18:21:57+0000
2.661 km
极远距离
1.080349E-6 低风险 0.36